Date String (YYYY-MM-DD hh:mm:ss) UTC,Instrument flags,Ambient pressure (hPa),Sample flow (lpm),Bypass flow (lpm),Sample temperature (°C),Ambient temperature (°C),ASC tube jacket temperature (°C),LED temperature (°C),Box temperature (°C),Sample RH (%),Span deviation,Mass concentration (μg/m³),Mass concentration (μg/m³),Mass concentration (μg/m³)
DateTimeUTC,F1_M11,P_M11,Q1_M11,Q2_M11,T1_M11,T2_M11,T3_M11,T4_M11,T5_M11,U1_M11,ZSPAN_M11,X0_M11,X2_M11,X1_M11
2021-12-05 05:00:00,,0821.8,5.01,0.00,28.0,27.1,00.0,37.0,29.6,08.3,0000.0,0006.43,0000.73,0000.44
2021-12-05 05:01:00,,0821.8,5.00,0.00,28.0,27.1,00.0,37.0,29.6,08.2,0000.0,0006.61,0000.75,0000.43
2021-12-05 05:02:00,,0821.8,4.99,0.00,28.0,27.1,00.0,37.0,29.7,07.9,0000.0,0004.97,0000.74,0000.43
2021-12-05 05:03:00,,0821.9,5.00,0.00,28.0,27.1,00.0,37.0,29.6,07.9,0000.0,0004.18,0000.74,0000.42
2021-12-05 05:04:00,,0821.9,5.01,0.00,28.0,27.0,00.0,37.0,29.6,07.9,0000.0,0004.21,0000.75,0000.42
2021-12-05 05:05:00,,0821.9,4.99,0.00,28.0,27.0,00.0,37.0,29.6,07.9,0000.0,0003.07,0000.75,0000.42
2021-12-05 05:06:00,,0821.8,5.02,0.00,28.0,27.0,00.0,37.0,29.6,07.8,0000.0,0002.16,0000.76,0000.42
2021-12-05 05:07:00,,0821.8,4.99,0.00,28.0,27.0,00.0,37.0,29.7,08.0,0000.0,0001.99,0000.75,0000.42
2021-12-05 05:08:00,,0821.8,5.01,0.00,28.0,27.0,00.0,37.0,29.7,08.0,0000.0,0001.87,0000.75,0000.43
2021-12-05 05:09:00,,0821.9,5.00,0.00,28.0,27.1,00.0,37.0,29.7,07.7,0000.0,0001.56,0000.74,0000.43
2021-12-05 05:10:00,,0821.9,5.00,0.00,28.0,27.0,00.0,37.0,29.7,07.6,0000.0,0001.60,0000.74,0000.42
2021-12-05 05:11:00,,0821.8,5.01,0.00,28.0,27.1,00.0,37.0,29.7,07.7,0000.0,0001.42,0000.68,0000.41
2021-12-05 05:12:00,,0821.8,5.00,0.00,28.0,27.1,00.0,37.0,29.7,08.0,0000.0,0001.17,0000.64,0000.42
2021-12-05 05:13:00,,0821.8,4.99,0.00,28.0,27.1,00.0,37.0,29.7,08.1,0000.0,0001.21,0000.66,0000.41
2021-12-05 05:14:00,,0821.8,5.00,0.00,28.0,27.1,00.0,37.0,29.7,08.3,0000.0,0001.21,0000.65,0000.41
2021-12-05 05:15:00,,0821.8,5.00,0.00,28.0,27.1,00.0,37.0,29.7,08.5,0000.0,0001.64,0000.68,0000.41
2021-12-05 05:16:00,,0822.0,4.99,0.00,28.0,27.1,00.0,37.0,29.7,08.2,0000.0,0001.70,0000.70,0000.42
2021-12-05 05:17:00,,0821.7,5.01,0.00,28.0,27.1,00.0,37.0,29.7,07.8,0000.0,0001.69,0000.70,0000.42
2021-12-05 05:18:00,,0821.8,4.99,0.00,28.0,27.1,00.0,37.0,29.7,07.7,0000.0,0001.76,0000.71,0000.42
2021-12-05 05:19:00,,0821.7,4.99,0.00,28.0,27.1,00.0,37.0,29.6,07.7,0000.0,0002.21,0000.74,0000.41
2021-12-05 05:20:00,,0821.7,5.01,0.00,28.0,27.1,00.0,37.0,29.7,07.8,0000.0,0003.06,0000.71,0000.41
2021-12-05 05:21:00,,0821.7,4.99,0.00,28.0,27.1,00.0,37.0,29.7,08.0,0000.0,0003.09,0000.71,0000.41
2021-12-05 05:22:00,,0821.7,4.99,0.00,28.0,27.1,00.0,37.0,29.6,07.9,0000.0,0003.12,0000.72,0000.42
2021-12-05 05:23:00,,0821.7,5.01,0.00,28.0,27.1,00.0,37.0,29.7,08.0,0000.0,0003.22,0000.73,0000.42
2021-12-05 05:24:00,,0821.6,5.01,0.00,28.0,27.1,00.0,37.0,29.6,07.9,0000.0,0003.69,0000.72,0000.42
2021-12-05 05:25:00,,0821.5,4.99,0.00,28.0,27.0,00.0,37.0,29.6,07.9,0000.0,0003.66,0000.70,0000.41
2021-12-05 05:26:00,,0821.6,5.01,0.00,28.0,27.0,00.0,37.0,29.6,07.8,0000.0,0003.36,0000.68,0000.42
2021-12-05 05:27:00,,0821.6,4.99,0.00,28.0,27.0,00.0,37.0,29.6,07.9,0000.0,0003.10,0000.63,0000.41
2021-12-05 05:28:00,,0821.5,5.00,0.00,27.9,27.0,00.0,37.0,29.6,07.9,0000.0,0003.07,0000.62,0000.41
2021-12-05 05:29:00,,0821.5,4.99,0.00,27.9,27.0,00.0,37.0,29.6,07.9,0000.0,0003.01,0000.60,0000.41
2021-12-05 05:30:00,,0821.5,5.00,0.00,27.9,26.9,00.0,37.0,29.6,08.0,0000.0,0002.65,0000.57,0000.41
2021-12-05 05:31:00,,0821.5,5.01,0.00,27.8,26.9,00.0,37.0,29.5,08.0,0000.0,0001.61,0000.58,0000.41
2021-12-05 05:32:00,,0821.4,5.00,0.00,27.8,26.9,00.0,37.0,29.5,08.0,0000.0,0001.56,0000.58,0000.41
2021-12-05 05:33:00,,0821.4,5.00,0.00,27.8,26.9,00.0,37.0,29.5,08.0,0000.0,0001.60,0000.61,0000.41
2021-12-05 05:34:00,,0821.4,5.01,0.00,27.8,26.8,00.0,36.9,29.4,08.0,0000.0,0001.57,0000.64,0000.41
2021-12-05 05:35:00,,0821.4,4.98,0.00,27.8,26.8,00.0,36.9,29.4,08.1,0000.0,0001.14,0000.65,0000.41
2021-12-05 05:36:00,,0821.3,5.02,0.00,27.7,26.8,00.0,36.9,29.4,08.0,0000.0,0001.18,0000.66,0000.42
2021-12-05 05:37:00,,0821.3,5.00,0.00,27.7,26.8,00.0,36.9,29.3,08.1,0000.0,0003.09,0000.71,0000.42
2021-12-05 05:38:00,,0821.3,4.99,0.00,27.6,26.7,00.0,36.9,29.3,08.2,0000.0,0003.53,0000.78,0000.42
2021-12-05 05:39:00,,0821.3,5.01,0.00,27.6,26.6,00.0,36.8,29.2,08.1,0000.0,0004.83,0000.80,0000.43
2021-12-05 05:40:00,,0821.3,5.00,0.00,27.6,26.6,00.0,36.8,29.2,08.1,0000.0,0004.85,0000.81,0000.44
2021-12-05 05:41:00,,0821.3,5.02,0.00,27.5,26.6,00.0,36.8,29.2,08.2,0000.0,0004.90,0000.83,0000.45
2021-12-05 05:42:00,,0821.4,4.99,0.00,27.5,26.6,00.0,36.8,29.2,08.1,0000.0,0004.90,0000.86,0000.45
2021-12-05 05:43:00,,0821.4,5.01,0.00,27.5,26.5,00.0,36.8,29.2,08.0,0000.0,0005.02,0000.90,0000.46
2021-12-05 05:44:00,,0821.3,5.01,0.00,27.5,26.5,00.0,36.7,29.1,08.0,0000.0,0005.00,0000.88,0000.46
2021-12-05 05:45:00,,0821.3,5.01,0.00,27.4,26.4,00.0,36.7,29.1,08.0,0000.0,0004.93,0000.86,0000.46
2021-12-05 05:46:00,,0821.2,4.98,0.00,27.4,26.4,00.0,36.7,29.0,08.0,0000.0,0004.97,0000.88,0000.47
2021-12-05 05:47:00,,0821.3,5.01,0.00,27.4,26.4,00.0,36.6,29.0,08.1,0000.0,0005.81,0000.87,0000.47
2021-12-05 05:48:00,,0821.1,5.01,0.00,27.3,26.4,00.0,36.6,28.9,08.2,0000.0,0004.96,0000.83,0000.47
2021-12-05 05:49:00,,0821.2,5.00,0.00,27.3,26.4,00.0,36.6,28.9,08.2,0000.0,0005.28,0000.80,0000.48
2021-12-05 05:50:00,,0821.2,5.00,0.00,27.3,26.4,00.0,36.5,28.9,08.2,0000.0,0004.31,0000.78,0000.48
2021-12-05 05:51:00,,0821.2,5.01,0.00,27.3,26.3,00.0,36.5,28.9,08.3,0000.0,0004.09,0000.79,0000.47
2021-12-05 05:52:00,,0821.1,5.00,0.00,27.2,26.3,00.0,36.5,28.9,08.3,0000.0,0004.09,0000.78,0000.47
2021-12-05 05:53:00,,0821.1,4.99,0.00,27.2,26.3,00.0,36.5,28.9,08.3,0000.0,0003.97,0000.73,0000.47
2021-12-05 05:54:00,,0821.1,5.01,0.00,27.2,26.3,00.0,36.5,28.9,08.4,0000.0,0003.95,0000.70,0000.46
2021-12-05 05:55:00,,0820.9,4.99,0.00,27.2,26.3,00.0,36.4,28.9,08.4,0000.0,0004.58,0000.71,0000.46
2021-12-05 05:56:00,,0820.9,5.01,0.00,27.2,26.3,00.0,36.4,28.9,08.3,0000.0,0005.29,0000.81,0000.47
2021-12-05 05:57:00,,0820.9,5.01,0.00,27.2,26.3,00.0,36.4,28.9,08.4,0000.0,0006.79,0000.94,0000.48
2021-12-05 05:58:00,,0820.8,5.01,0.00,27.2,26.2,00.0,36.4,28.9,08.3,0000.0,0007.33,0001.05,0000.49
2021-12-05 05:59:00,,0820.9,4.99,0.00,27.2,26.2,00.0,36.4,29.0,08.1,0000.0,0007.08,0001.13,0000.50
